| time (UTC) | temp F | wind direction | speed knots | gust knots | rain 1hr in | rain 24hr in | rain mn in | humidity % | barometer mb |
| 20260506105945 | 75 | 185 | 0.0 | 0.9 | 0.00 | 0.00 | 0.00 | 92 | 1006.0 |
| 20260506105442 | 75 | 208 | 0.9 | 0.9 | 0.00 | 0.00 | 0.00 | 92 | 1005.6 |
| 20260506104939 | 76 | 233 | 1.7 | 2.6 | 0.00 | 0.00 | 0.00 | 92 | 1005.8 |
| 20260506104437 | 76 | 197 | 0.9 | 0.9 | 0.00 | 0.00 | 0.00 | 92 | 1005.6 |
| 20260506103936 | 76 | 286 | 1.7 | 1.7 | 0.00 | 0.00 | 0.00 | 92 | 1005.4 |
| 20260506103432 | 76 | 214 | 1.7 | 1.7 | 0.00 | 0.00 | 0.00 | 91 | 1005.7 |
| 20260506102929 | 76 | 218 | 0.9 | 1.7 | 0.00 | 0.00 | 0.00 | 91 | 1005.7 |
| 20260506102427 | 76 | 198 | 0.9 | 0.9 | 0.00 | 0.00 | 0.00 | 91 | 1005.5 |
| 20260506101924 | 76 | 229 | 1.7 | 1.7 | 0.00 | 0.00 | 0.00 | 91 | 1005.5 |
| 20260506101420 | 76 | 219 | 2.6 | 2.6 | 0.00 | 0.00 | 0.00 | 91 | 1005.6 |
| 20260506100918 | 76 | 216 | 2.6 | 4.3 | 0.00 | 0.00 | 0.00 | 91 | 1005.8 |
| 20260506100416 | 76 | 246 | 1.7 | 1.7 | 0.00 | 0.00 | 0.00 | 90 | 1005.6 |
| 20260506095914 | 76 | 205 | 2.6 | 2.6 | 0.00 | 0.00 | 0.00 | 90 | 1005.6 |
| 20260506095412 | 76 | 184 | 1.7 | 1.7 | 0.00 | 0.00 | 0.00 | 90 | 1005.2 |
| 20260506094908 | 76 | 220 | 1.7 | 1.7 | 0.00 | 0.00 | 0.00 | 90 | 1005.5 |
| 20260506094407 | 76 | 230 | 3.5 | 6.1 | 0.00 | 0.00 | 0.00 | 90 | 1005.3 |
| 20260506093904 | 76 | 224 | 2.6 | 4.3 | 0.00 | 0.00 | 0.00 | 90 | 1005.3 |
| 20260506093402 | 76 | 226 | 2.6 | 2.6 | 0.00 | 0.00 | 0.00 | 90 | 1005.2 |
| 20260506092859 | 77 | 202 | 1.7 | 2.6 | 0.00 | 0.00 | 0.00 | 90 | 1005.6 |
| 20260506092357 | 77 | 208 | 2.6 | 2.6 | 0.00 | 0.00 | 0.00 | 90 | 1005.3 |
| 20260506091853 | 77 | 172 | 1.7 | 2.6 | 0.00 | 0.00 | 0.00 | 90 | 1005.2 |
| 20260506091352 | 77 | 228 | 4.3 | 5.2 | 0.00 | 0.00 | 0.00 | 90 | 1005.2 |
| 20260506090848 | 77 | 220 | 4.3 | 6.1 | 0.00 | 0.00 | 0.00 | 90 | 1005.1 |
| 20260506090346 | 77 | 162 | 3.5 | 5.2 | 0.00 | 0.00 | 0.00 | 90 | 1005.0 |
| 20260506085843 | 77 | 234 | 4.3 | 6.1 | 0.00 | 0.00 | 0.00 | 90 | 1005.2 |
| 20260506085339 | 77 | 235 | 2.6 | 2.6 | 0.00 | 0.00 | 0.00 | 90 | 1005.1 |
| 20260506084835 | 77 | 201 | 2.6 | 2.6 | 0.00 | 0.00 | 0.00 | 90 | 1005.4 |
| 20260506084332 | 77 | 213 | 1.7 | 1.7 | 0.00 | 0.00 | 0.00 | 90 | 1005.3 |
| 20260506083829 | 77 | 195 | 2.6 | 2.6 | 0.00 | 0.00 | 0.00 | 90 | 1005.1 |
| 20260506083326 | 77 | 188 | 3.5 | 5.2 | 0.00 | 0.00 | 0.00 | 90 | 1005.3 |
| 20260506082824 | 77 | 166 | 4.3 | 6.1 | 0.00 | 0.00 | 0.00 | 90 | 1005.5 |
| 20260506082320 | 77 | 230 | 3.5 | 4.3 | 0.00 | 0.00 | 0.00 | 90 | 1005.2 |
| 20260506081816 | 77 | 236 | 2.6 | 2.6 | 0.00 | 0.00 | 0.00 | 90 | 1005.6 |
| 20260506081314 | 77 | 229 | 2.6 | 2.6 | 0.00 | 0.00 | 0.00 | 89 | 1005.4 |
| 20260506080812 | 77 | 229 | 1.7 | 1.7 | 0.00 | 0.00 | 0.00 | 89 | 1005.6 |
| 20260506080308 | 77 | 206 | 1.7 | 2.6 | 0.00 | 0.00 | 0.00 | 89 | 1005.8 |
| 20260506073252 | 77 | 232 | 1.7 | 1.7 | 0.00 | 0.00 | 0.00 | 89 | 1006.2 |
| 20260506072749 | 77 | 217 | 2.6 | 2.6 | 0.00 | 0.00 | 0.00 | 89 | 1006.1 |
| 20260506072246 | 77 | 222 | 2.6 | 2.6 | 0.00 | 0.00 | 0.00 | 89 | 1006.4 |
| 20260506071744 | 77 | 209 | 5.2 | 6.1 | 0.00 | 0.00 | 0.00 | 89 | 1006.2 |
| 20260506071242 | 77 | 250 | 1.7 | 2.6 | 0.00 | 0.00 | 0.00 | 89 | 1006.2 |
| 20260506070738 | 77 | 194 | 2.6 | 2.6 | 0.00 | 0.00 | 0.00 | 89 | 1006.3 |
| 20260506070235 | 77 | 221 | 2.6 | 2.6 | 0.00 | 0.00 | 0.00 | 89 | 1006.3 |
| 20260506062212 | 77 | 234 | 2.6 | 2.6 | 0.00 | 0.00 | 0.00 | 89 | 1006.2 |
| 20260506061708 | 77 | 212 | 1.7 | 1.7 | 0.00 | 0.00 | 0.00 | 89 | 1006.3 |
| 20260506061206 | 77 | 168 | 1.7 | 2.6 | 0.00 | 0.00 | 0.00 | 89 | 1006.2 |
| 20260506060705 | 77 | 220 | 3.5 | 5.2 | 0.00 | 0.00 | 0.00 | 89 | 1006.4 |
| 20260506060201 | 77 | 220 | 3.5 | 5.2 | 0.00 | 0.00 | 0.00 | 89 | 1006.3 |
| 20260506051133 | 78 | 204 | 2.6 | 4.3 | 0.00 | 0.00 | 0.00 | 88 | 1006.2 |
| 20260506050631 | 78 | 201 | 1.7 | 1.7 | 0.00 | 0.00 | 0.00 | 88 | 1006.4 |
| 20260506050128 | 78 | 219 | 1.7 | 1.7 | 0.00 | 0.00 | 0.00 | 88 | 1006.4 |
| 20260506045121 | 78 | 238 | 3.5 | 4.3 | 0.00 | 0.00 | 0.00 | 87 | 1006.4 |
| 20260506044619 | 78 | 178 | 3.5 | 5.2 | 0.00 | 0.00 | 0.00 | 87 | 1006.5 |
| 20260506044116 | 78 | 209 | 1.7 | 1.7 | 0.00 | 0.00 | 0.00 | 87 | 1006.2 |
| 20260506043613 | 78 | 222 | 0.9 | 1.7 | 0.00 | 0.00 | 0.00 | 87 | 1006.2 |
| 20260506043111 | 78 | 221 | 4.3 | 5.2 | 0.00 | 0.00 | 0.00 | 86 | 1006.3 |
| 20260506042610 | 78 | 220 | 1.7 | 1.7 | 0.00 | 0.00 | 0.00 | 86 | 1006.4 |
| 20260506042107 | 78 | 215 | 1.7 | 2.6 | 0.00 | 0.00 | 0.00 | 86 | 1006.5 |
| 20260506041606 | 78 | 148 | 0.9 | 0.9 | 0.00 | 0.00 | 0.00 | 86 | 1006.5 |
| 20260506041102 | 78 | 200 | 3.5 | 4.3 | 0.00 | 0.00 | 0.00 | 86 | 1006.4 |
| 20260506040600 | 78 | 221 | 2.6 | 2.6 | 0.00 | 0.00 | 0.00 | 86 | 1006.1 |
| 20260506040056 | 78 | 216 | 2.6 | 2.6 | 0.00 | 0.00 | 0.00 | 86 | 1006.1 |
| 20260506035553 | 78 | 211 | 4.3 | 5.2 | 0.00 | 0.00 | 0.00 | 85 | 1006.2 |
| 20260506035050 | 78 | 203 | 2.6 | 2.6 | 0.00 | 0.00 | 0.00 | 85 | 1006.1 |
| 20260506034547 | 78 | 205 | 2.6 | 2.6 | 0.00 | 0.00 | 0.00 | 85 | 1006.1 |
| 20260506034044 | 78 | 235 | 2.6 | 2.6 | 0.00 | 0.00 | 0.00 | 85 | 1005.9 |
| 20260506033541 | 79 | 194 | 3.5 | 5.2 | 0.00 | 0.00 | 0.00 | 85 | 1006.0 |
| 20260506033038 | 79 | 192 | 1.7 | 1.7 | 0.00 | 0.00 | 0.00 | 85 | 1005.8 |
| 20260506032536 | 79 | 227 | 2.6 | 2.6 | 0.00 | 0.00 | 0.00 | 85 | 1005.9 |
| 20260506032032 | 79 | 214 | 1.7 | 1.7 | 0.00 | 0.00 | 0.00 | 84 | 1005.8 |
| 20260506031530 | 79 | 156 | 1.7 | 1.7 | 0.00 | 0.00 | 0.00 | 84 | 1005.9 |
| 20260506031027 | 79 | 231 | 4.3 | 6.1 | 0.00 | 0.00 | 0.00 | 84 | 1005.9 |
| 20260506030525 | 79 | 191 | 2.6 | 4.3 | 0.00 | 0.00 | 0.00 | 84 | 1005.7 |
| 20260506030022 | 79 | 192 | 2.6 | 2.6 | 0.00 | 0.00 | 0.00 | 84 | 1005.8 |
| 20260506025519 | 79 | 201 | 4.3 | 5.2 | 0.00 | 0.00 | 0.00 | 84 | 1005.7 |
| 20260506025015 | 79 | 169 | 2.6 | 2.6 | 0.00 | 0.00 | 0.00 | 84 | 1005.5 |
| 20260506024512 | 79 | 178 | 3.5 | 4.3 | 0.00 | 0.00 | 0.00 | 84 | 1005.6 |
| 20260506024008 | 79 | 195 | 1.7 | 1.7 | 0.00 | 0.00 | 0.00 | 83 | 1005.0 |
| 20260506023504 | 79 | 196 | 2.6 | 4.3 | 0.00 | 0.00 | 0.00 | 83 | 1005.0 |
| 20260506023002 | 79 | 236 | 2.6 | 2.6 | 0.00 | 0.00 | 0.00 | 83 | 1005.3 |
| 20260506022500 | 79 | 229 | 1.7 | 1.7 | 0.00 | 0.00 | 0.00 | 83 | 1005.0 |
| 20260506021957 | 79 | 219 | 4.3 | 6.1 | 0.00 | 0.00 | 0.00 | 83 | 1004.8 |
| 20260506021454 | 79 | 240 | 4.3 | 7.0 | 0.00 | 0.00 | 0.00 | 82 | 1005.1 |
| 20260506020951 | 79 | 226 | 1.7 | 1.7 | 0.00 | 0.00 | 0.00 | 82 | 1004.8 |
| 20260506020449 | 80 | 218 | 0.9 | 1.7 | 0.00 | 0.00 | 0.00 | 82 | 1004.5 |
| 20260506015946 | 80 | 225 | 3.5 | 4.3 | 0.00 | 0.00 | 0.00 | 81 | 1004.9 |
| 20260506015443 | 80 | 228 | 3.5 | 4.3 | 0.00 | 0.00 | 0.00 | 81 | 1004.8 |
| 20260506014940 | 80 | 198 | 4.3 | 5.2 | 0.00 | 0.00 | 0.00 | 81 | 1004.6 |
| 20260506014437 | 80 | 204 | 3.5 | 6.1 | 0.00 | 0.00 | 0.00 | 81 | 1004.6 |
| 20260506013933 | 80 | 202 | 4.3 | 5.2 | 0.00 | 0.00 | 0.00 | 81 | 1004.4 |
| 20260506013432 | 80 | 245 | 4.3 | 5.2 | 0.00 | 0.00 | 0.00 | 80 | 1004.3 |
| 20260506012928 | 80 | 213 | 3.5 | 5.2 | 0.00 | 0.00 | 0.00 | 80 | 1004.4 |
| 20260506012424 | 80 | 210 | 3.5 | 4.3 | 0.00 | 0.00 | 0.00 | 80 | 1004.2 |
| 20260506011921 | 80 | 216 | 3.5 | 4.3 | 0.00 | 0.00 | 0.00 | 80 | 1004.3 |
| 20260506011419 | 80 | 223 | 1.7 | 1.7 | 0.00 | 0.00 | 0.00 | 81 | 1004.1 |
| 20260506010915 | 80 | 225 | 1.7 | 1.7 | 0.00 | 0.00 | 0.00 | 80 | 1004.1 |
| 20260506010414 | 80 | 179 | 3.5 | 4.3 | 0.00 | 0.00 | 0.00 | 80 | 1004.1 |
| 20260506005910 | 80 | 205 | 4.3 | 5.2 | 0.00 | 0.00 | 0.00 | 80 | 1003.9 |
| 20260506005408 | 80 | 198 | 2.6 | 4.3 | 0.00 | 0.00 | 0.00 | 80 | 1004.0 |
| 20260506004903 | 80 | 184 | 3.5 | 4.3 | 0.00 | 0.00 | 0.00 | 80 | 1003.8 |
| 20260506004401 | 80 | 226 | 2.6 | 2.6 | 0.00 | 0.00 | 0.00 | 80 | 1003.9 |
| 20260506003857 | 81 | 189 | 3.5 | 4.3 | 0.00 | 0.00 | 0.00 | 80 | 1003.9 |
| 20260506003353 | 81 | 244 | 5.2 | 6.1 | 0.00 | 0.00 | 0.00 | 80 | 1003.6 |
| 20260506002850 | 81 | 222 | 2.6 | 4.3 | 0.00 | 0.00 | 0.00 | 80 | 1003.6 |
| 20260506002346 | 81 | 224 | 2.6 | 2.6 | 0.00 | 0.00 | 0.00 | 80 | 1003.8 |
| 20260506001842 | 81 | 189 | 1.7 | 1.7 | 0.00 | 0.00 | 0.00 | 80 | 1003.9 |
| 20260506001339 | 81 | 133 | 3.5 | 4.3 | 0.00 | 0.00 | 0.00 | 79 | 1003.8 |
| 20260506000836 | 81 | 174 | 2.6 | 4.3 | 0.00 | 0.00 | 0.00 | 79 | 1003.5 |
| 20260506000334 | 82 | 212 | 4.3 | 5.2 | 0.00 | 0.00 | 0.00 | 78 | 1003.6 |
| 20260505235830 | 82 | 194 | 3.5 | 4.3 | 0.00 | 0.00 | 0.00 | 78 | 1003.7 |
| 20260505235328 | 82 | 190 | 3.5 | 5.2 | 0.00 | 0.00 | 0.00 | 77 | 1003.6 |
| 20260505234824 | 82 | 229 | 2.6 | 2.6 | 0.00 | 0.00 | 0.00 | 76 | 1003.6 |
| 20260505234322 | 82 | 228 | 2.6 | 4.3 | 0.00 | 0.00 | 0.00 | 75 | 1003.5 |
| 20260505233819 | 83 | 226 | 3.5 | 5.2 | 0.00 | 0.00 | 0.00 | 76 | 1003.5 |
| 20260505233317 | 83 | 231 | 2.6 | 2.6 | 0.00 | 0.00 | 0.00 | 76 | 1003.5 |
| 20260505232814 | 83 | 226 | 2.6 | 4.3 | 0.00 | 0.00 | 0.00 | 75 | 1003.4 |
| 20260505232312 | 82 | 227 | 2.6 | 2.6 | 0.00 | 0.00 | 0.00 | 75 | 1003.5 |
| 20260505231808 | 83 | 256 | 5.2 | 6.1 | 0.00 | 0.00 | 0.00 | 75 | 1003.6 |
| 20260505231307 | 83 | 247 | 4.3 | 6.1 | 0.00 | 0.00 | 0.00 | 75 | 1003.7 |
| 20260505230804 | 83 | 234 | 3.5 | 4.3 | 0.00 | 0.00 | 0.00 | 75 | 1003.6 |
| 20260505230301 | 83 | 208 | 4.3 | 5.2 | 0.00 | 0.00 | 0.00 | 75 | 1003.8 |
| 20260505225757 | 83 | 170 | 1.7 | 1.7 | 0.00 | 0.00 | 0.00 | 74 | 1003.6 |
| 20260505225255 | 83 | 249 | 5.2 | 6.1 | 0.00 | 0.00 | 0.00 | 74 | 1003.7 |
| 20260505224749 | 83 | 204 | 2.6 | 2.6 | 0.00 | 0.00 | 0.00 | 74 | 1003.8 |
| 20260505224248 | 84 | 227 | 4.3 | 6.1 | 0.00 | 0.00 | 0.00 | 74 | 1003.5 |
| 20260505223745 | 84 | 283 | 4.3 | 5.2 | 0.00 | 0.00 | 0.00 | 74 | 1003.6 |
| 20260505223241 | 84 | 218 | 5.2 | 6.1 | 0.00 | 0.00 | 0.00 | 74 | 1003.3 |
| 20260505222737 | 84 | 249 | 1.7 | 1.7 | 0.00 | 0.00 | 0.00 | 74 | 1003.7 |
| 20260505222234 | 84 | 225 | 5.2 | 7.0 | 0.00 | 0.00 | 0.00 | 74 | 1003.9 |
| 20260505221731 | 84 | 240 | 5.2 | 7.0 | 0.00 | 0.00 | 0.00 | 74 | 1003.8 |
| 20260505221227 | 84 | 199 | 2.6 | 2.6 | 0.00 | 0.00 | 0.00 | 75 | 1003.6 |
| 20260505220724 | 83 | 210 | 4.3 | 5.2 | 0.00 | 0.00 | 0.00 | 75 | 1003.7 |
| 20260505220222 | 83 | 179 | 3.5 | 4.3 | 0.00 | 0.00 | 0.00 | 75 | 1003.7 |
| 20260505215720 | 84 | 235 | 2.6 | 2.6 | 0.00 | 0.00 | 0.00 | 76 | 1004.1 |
| 20260505215217 | 84 | 244 | 4.3 | 5.2 | 0.00 | 0.00 | 0.00 | 74 | 1003.9 |
| 20260505214715 | 84 | 223 | 2.6 | 2.6 | 0.00 | 0.00 | 0.00 | 75 | 1003.9 |
| 20260505214212 | 84 | 200 | 4.3 | 5.2 | 0.00 | 0.00 | 0.00 | 75 | 1004.1 |
| 20260505213709 | 84 | 202 | 2.6 | 2.6 | 0.00 | 0.00 | 0.00 | 75 | 1004.2 |
| 20260505213207 | 84 | 213 | 2.6 | 2.6 | 0.00 | 0.00 | 0.00 | 74 | 1004.2 |
| 20260505212702 | 84 | 217 | 2.6 | 2.6 | 0.00 | 0.00 | 0.00 | 75 | 1004.4 |
| 20260505212200 | 84 | 273 | 2.6 | 4.3 | 0.00 | 0.00 | 0.00 | 75 | 1004.4 |
| 20260505211657 | 84 | 231 | 1.7 | 1.7 | 0.00 | 0.00 | 0.00 | 75 | 1004.5 |
| 20260505211154 | 84 | 214 | 3.5 | 5.2 | 0.00 | 0.00 | 0.00 | 75 | 1004.1 |
| 20260505210650 | 84 | 224 | 4.3 | 5.2 | 0.00 | 0.00 | 0.00 | 74 | 1004.6 |
| 20260505210147 | 84 | 241 | 2.6 | 2.6 | 0.00 | 0.00 | 0.00 | 74 | 1004.4 |
| 20260505205645 | 84 | 208 | 2.6 | 2.6 | 0.00 | 0.00 | 0.00 | 74 | 1004.6 |
| 20260505205143 | 85 | 252 | 3.5 | 4.3 | 0.00 | 0.00 | 0.00 | 73 | 1004.5 |
| 20260505204639 | 85 | 185 | 2.6 | 2.6 | 0.00 | 0.00 | 0.00 | 73 | 1004.7 |
| 20260505204137 | 85 | 238 | 4.3 | 6.1 | 0.00 | 0.00 | 0.00 | 72 | 1004.8 |
| 20260505203634 | 84 | 203 | 1.7 | 2.6 | 0.00 | 0.00 | 0.00 | 74 | 1004.8 |
| 20260505203131 | 84 | 215 | 3.5 | 5.2 | 0.00 | 0.00 | 0.00 | 73 | 1005.3 |
| 20260505202626 | 84 | 218 | 2.6 | 5.2 | 0.00 | 0.00 | 0.00 | 74 | 1004.9 |
| 20260505202122 | 84 | 214 | 3.5 | 4.3 | 0.00 | 0.00 | 0.00 | 74 | 1004.8 |
| 20260505201619 | 85 | 210 | 3.5 | 4.3 | 0.00 | 0.00 | 0.00 | 73 | 1005.1 |
| 20260505201117 | 85 | 247 | 4.3 | 5.2 | 0.00 | 0.00 | 0.00 | 73 | 1005.3 |
| 20260505200615 | 84 | 220 | 2.6 | 2.6 | 0.00 | 0.00 | 0.00 | 74 | 1005.1 |
| 20260505200112 | 85 | 221 | 5.2 | 7.0 | 0.00 | 0.00 | 0.00 | 74 | 1005.3 |
| 20260505195608 | 84 | 236 | 5.2 | 6.1 | 0.00 | 0.00 | 0.00 | 75 | 1005.3 |
| 20260505195106 | 83 | 231 | 4.3 | 7.0 | 0.00 | 0.00 | 0.00 | 76 | 1005.4 |
| 20260505194602 | 83 | 164 | 3.5 | 4.3 | 0.00 | 0.00 | 0.00 | 77 | 1005.6 |
| 20260505194058 | 82 | 209 | 3.5 | 4.3 | 0.00 | 0.00 | 0.00 | 78 | 1005.5 |
| 20260505193555 | 82 | 242 | 3.5 | 4.3 | 0.00 | 0.00 | 0.00 | 78 | 1005.4 |
| 20260505193052 | 82 | 220 | 4.3 | 5.2 | 0.00 | 0.00 | 0.00 | 77 | 1005.6 |
| 20260505192551 | 82 | 239 | 4.3 | 6.1 | 0.00 | 0.00 | 0.00 | 76 | 1005.8 |
| 20260505192048 | 83 | 215 | 4.3 | 5.2 | 0.00 | 0.00 | 0.00 | 76 | 1005.5 |
| 20260505191546 | 83 | 260 | 4.3 | 6.1 | 0.00 | 0.00 | 0.00 | 75 | 1005.8 |
| 20260505191043 | 83 | 237 | 2.6 | 4.3 | 0.00 | 0.00 | 0.00 | 76 | 1005.7 |
| 20260505190538 | 83 | 203 | 4.3 | 4.3 | 0.00 | 0.00 | 0.00 | 76 | 1005.8 |
| 20260505190034 | 83 | 212 | 4.3 | 5.2 | 0.00 | 0.00 | 0.00 | 76 | 1005.9 |
| 20260505185531 | 82 | 214 | 4.3 | 7.8 | 0.00 | 0.00 | 0.00 | 77 | 1005.9 |
| 20260505185028 | 82 | 246 | 2.6 | 2.6 | 0.00 | 0.00 | 0.00 | 78 | 1006.0 |
| 20260505184524 | 82 | 215 | 2.6 | 2.6 | 0.00 | 0.00 | 0.00 | 77 | 1006.1 |
| 20260505184021 | 82 | 259 | 4.3 | 5.2 | 0.00 | 0.00 | 0.00 | 77 | 1006.2 |
| 20260505183518 | 82 | 242 | 1.7 | 2.6 | 0.00 | 0.00 | 0.00 | 78 | 1006.2 |
| 20260505183015 | 81 | 239 | 4.3 | 5.2 | 0.00 | 0.00 | 0.00 | 79 | 1006.0 |
| 20260505182512 | 80 | 232 | 4.3 | 5.2 | 0.00 | 0.00 | 0.00 | 80 | 1006.0 |
| 20260505182008 | 81 | 194 | 4.3 | 5.2 | 0.00 | 0.00 | 0.00 | 80 | 1006.1 |
| 20260505181505 | 81 | 213 | 7.0 | 8.7 | 0.00 | 0.00 | 0.00 | 79 | 1006.2 |
| 20260505181003 | 81 | 36 | 3.5 | 6.1 | 0.00 | 0.00 | 0.00 | 79 | 1006.1 |
| 20260505180458 | 81 | 276 | 2.6 | 4.3 | 0.00 | 0.00 | 0.00 | 79 | 1006.0 |
| 20260505175955 | 81 | 214 | 2.6 | 4.3 | 0.00 | 0.00 | 0.00 | 80 | 1006.2 |
| 20260505175451 | 81 | 221 | 2.6 | 4.3 | 0.00 | 0.00 | 0.00 | 80 | 1006.3 |
| 20260505174948 | 80 | 231 | 2.6 | 2.6 | 0.00 | 0.00 | 0.00 | 81 | 1006.3 |
| 20260505174445 | 80 | 225 | 0.9 | 1.7 | 0.00 | 0.00 | 0.00 | 81 | 1006.4 |
| 20260505173941 | 80 | 242 | 1.7 | 1.7 | 0.00 | 0.00 | 0.00 | 81 | 1006.1 |
| 20260505173438 | 80 | 230 | 4.3 | 6.1 | 0.00 | 0.00 | 0.00 | 81 | 1006.5 |
| 20260505172935 | 80 | 185 | 3.5 | 4.3 | 0.00 | 0.00 | 0.00 | 82 | 1006.4 |
| 20260505172433 | 79 | 228 | 4.3 | 5.2 | 0.00 | 0.00 | 0.00 | 83 | 1006.8 |
| 20260505171932 | 78 | 245 | 1.7 | 1.7 | 0.00 | 0.00 | 0.00 | 85 | 1006.6 |
| 20260505171430 | 78 | 221 | 2.6 | 2.6 | 0.00 | 0.00 | 0.00 | 85 | 1006.5 |
| 20260505170926 | 78 | 220 | 3.5 | 5.2 | 0.00 | 0.00 | 0.00 | 86 | 1006.5 |
| 20260505170423 | 78 | 212 | 3.5 | 4.3 | 0.00 | 0.00 | 0.00 | 85 | 1006.6 |
| 20260505165918 | 79 | 178 | 3.5 | 5.2 | 0.00 | 0.00 | 0.00 | 83 | 1006.7 |
| 20260505165415 | 79 | 213 | 2.6 | 4.3 | 0.00 | 0.00 | 0.00 | 82 | 1006.7 |
| 20260505164910 | 79 | 266 | 2.6 | 5.2 | 0.00 | 0.00 | 0.00 | 82 | 1006.7 |
| 20260505164407 | 79 | 220 | 2.6 | 2.6 | 0.00 | 0.00 | 0.00 | 82 | 1006.7 |
| 20260505163905 | 79 | 196 | 1.7 | 1.7 | 0.00 | 0.00 | 0.00 | 83 | 1006.6 |
| 20260505163404 | 79 | 260 | 7.0 | 8.7 | 0.00 | 0.00 | 0.00 | 82 | 1006.8 |
| 20260505162902 | 79 | 216 | 5.2 | 7.0 | 0.00 | 0.00 | 0.00 | 82 | 1006.7 |
| 20260505162357 | 79 | 221 | 2.6 | 4.3 | 0.00 | 0.00 | 0.00 | 83 | 1006.7 |
| 20260505161855 | 78 | 203 | 2.6 | 2.6 | 0.00 | 0.00 | 0.00 | 83 | 1006.6 |
| 20260505161351 | 78 | 241 | 4.3 | 5.2 | 0.00 | 0.00 | 0.00 | 82 | 1006.4 |
| 20260505160849 | 78 | 196 | 2.6 | 2.6 | 0.00 | 0.00 | 0.00 | 83 | 1006.7 |
| 20260505160347 | 78 | 217 | 4.3 | 6.1 | 0.00 | 0.00 | 0.00 | 83 | 1006.5 |
| 20260505153325 | 77 | 213 | 3.5 | 4.3 | 0.00 | 0.00 | 0.00 | 84 | 1006.4 |
| 20260505152822 | 77 | 199 | 2.6 | 2.6 | 0.00 | 0.00 | 0.00 | 84 | 1006.4 |
| 20260505152319 | 77 | 210 | 2.6 | 4.3 | 0.00 | 0.00 | 0.00 | 84 | 1006.4 |
| 20260505151814 | 78 | 270 | 3.5 | 5.2 | 0.00 | 0.00 | 0.00 | 84 | 1006.5 |
| 20260505151311 | 77 | 223 | 2.6 | 2.6 | 0.00 | 0.00 | 0.00 | 84 | 1006.3 |
| 20260505150808 | 77 | 260 | 2.6 | 4.3 | 0.00 | 0.00 | 0.00 | 84 | 1006.3 |
| 20260505150305 | 77 | 232 | 1.7 | 1.7 | 0.00 | 0.00 | 0.00 | 84 | 1006.3 |
| 20260505140229 | 76 | 209 | 2.6 | 2.6 | 0.00 | 0.00 | 0.00 | 86 | 1005.9 |
| 20260505130153 | 74 | 223 | 2.6 | 2.6 | 0.00 | 0.00 | 0.00 | 88 | 1006.1 |
| 20260505124643 | 73 | 166 | 2.6 | 2.6 | 0.00 | 0.00 | 0.00 | 89 | 1005.6 |
| 20260505124139 | 73 | 158 | 1.7 | 1.7 | 0.00 | 0.00 | 0.00 | 89 | 1005.5 |
| 20260505123635 | 73 | 202 | 2.6 | 4.3 | 0.00 | 0.00 | 0.00 | 89 | 1005.6 |
| 20260505123132 | 73 | 224 | 1.7 | 1.7 | 0.00 | 0.00 | 0.00 | 89 | 1006.0 |
| 20260505122629 | 73 | 179 | 0.9 | 0.9 | 0.00 | 0.00 | 0.00 | 89 | 1006.0 |
| 20260505122126 | 73 | 190 | 0.9 | 0.9 | 0.00 | 0.00 | 0.00 | 89 | 1005.7 |
| 20260505121622 | 73 | 216 | 2.6 | 2.6 | 0.00 | 0.00 | 0.00 | 90 | 1006.1 |
| 20260505121119 | 73 | 204 | 1.7 | 1.7 | 0.00 | 0.00 | 0.00 | 90 | 1005.9 |
| 20260505120615 | 73 | 181 | 0.9 | 1.7 | 0.00 | 0.00 | 0.00 | 90 | 1005.8 |
| 20260505120112 | 72 | 194 | 0.9 | 0.9 | 0.00 | 0.00 | 0.00 | 90 | 1005.5 |
| 20260505115606 | 72 | 211 | 2.6 | 2.6 | 0.00 | 0.00 | 0.00 | 90 | 1005.5 |
| 20260505115104 | 72 | 203 | 5.2 | 6.1 | 0.00 | 0.00 | 0.00 | 90 | 1005.5 |
| 20260505114601 | 72 | 211 | 0.9 | 1.7 | 0.00 | 0.00 | 0.00 | 90 | 1005.3 |
| 20260505114057 | 72 | 204 | 2.6 | 2.6 | 0.00 | 0.00 | 0.00 | 90 | 1005.4 |
| 20260505113553 | 72 | 236 | 2.6 | 2.6 | 0.00 | 0.00 | 0.00 | 90 | 1005.8 |
| 20260505113050 | 72 | 216 | 1.7 | 2.6 | 0.00 | 0.00 | 0.00 | 91 | 1005.9 |
| 20260505112546 | 72 | 243 | 1.7 | 1.7 | 0.00 | 0.00 | 0.00 | 91 | 1005.5 |
| 20260505112044 | 71 | 237 | 1.7 | 1.7 | 0.00 | 0.00 | 0.00 | 91 | 1005.7 |
| 20260505111538 | 71 | 205 | 0.9 | 1.7 | 0.00 | 0.00 | 0.00 | 91 | 1005.6 |
| 20260505111035 | 71 | 220 | 0.9 | 0.9 | 0.00 | 0.00 | 0.00 | 91 | 1005.6 |
| 20260505110531 | 71 | 201 | 1.7 | 2.6 | 0.00 | 0.00 | 0.00 | 91 | 1005.4 |